FENGYUN 1C DEB, 31663

Orbit data source: Space-Track

FENGYUN 1C DEB, 31663 is space debris in SSO originally from a launch on Mon, 10 May 1999 UTC launched from the Taiyaun Space Center, China (TSC). Fengyun 1C debris stems from the Chinese weather satellite Fengyun-1C, which was intentionally destroyed by a Chinese anti-satellite missile in 2007. This event dramatically increased the amount of space debris, with thousands of trackable fragments posing hazards to satellites and human spaceflight. The Fengyun 1C debris cloud has become a focal point in discussions about space sustainability and the need for international regulations to prevent the creation of new debris.

Loading next visibility...
Identifier
31663, 1999-025CBV
Orbit
SSO
Country
Flag of CNCN / PRC
Related business
Manufacturer
Unknown
Mission
Spacecraft
Bus & Motor
Unknown
Mass
Unknown
Launch date (UTC)
1999-05-10 (27 years ago)
Launch vehicle
Unknown
Launch site
Taiyaun Space Center, China (TSC)
Object type
Payload
Rocket body
Debris
Shape & HBR
Unknown shape, 0.1 m
Radar Cross Section
Small (<0.1 m²)

Expand to show TLE details & history
Last TLE update: 14 hours ago

TLE from 14 hours ago
0 FENGYUN 1C DEB
1 31663U 99025CBV 26236.06668408  .00001037  00000-0  11614-3 0  9998
2 31663  98.8401 173.2662 0187515 156.4624 204.5306 14.77642235 30287
Epoch: 2026-08-24T01:36Z
TLE epoch observation values (Epoch: 2026-08-24T01:36:01.504Z)
Latitude
-0.00007°
Longitude
176.90623°
Altitude
759.874 km
Speed
7.41 km/s
True Right ascension
11h 33m 03s
True Declination
0° 00' 00"
Sunlit
Object was in daylight at epoch
Visualization orbit readout
Latitude
Unknown
Longitude
Unknown
Altitude
Unknown
Speed
Unknown
Apparent Right ascension
Unknown
Apparent Declination
Unknown
Sunlit
N/A
Visualization observer readout
Local Sidereal Time
06:49:03
Azimuth
Unknown
Elevation
Unknown
Doppler factor
Unknown
Orbital elements
Apogee altitude
765.349 km
Perigee altitude
502.378 km
Semi-major axis
7,012 km
Eccentricity
0.01875
Inclination
98.8401°
RAAN
173.2662°
Arg. of periapsis
156.4624°
True anomaly
203.65715°
Mean anomaly
204.5306°
Eccentric anomaly
204.09203°
Mean motion
3.69641 °/min
Orbital period
97.39 mins
BSTAR
0.00011614
Loading maneuver chart data...
Computing Atmospheric mass density...

Documentation

Showing up to 5 results
|